www.pogodaiklimat.ru
Время
(UTC), дата
01:54 29.12
02:54 29.12
03:54 29.12
04:54 30.12
05:25 30.12
05:32 30.12
05:54 30.12
06:29 30.12
06:54 30.12
07:54 30.12
08:54 30.12
09:54 30.12
10:54 30.12
11:54 30.12
12:54 30.12
13:54 30.12
14:54 30.12
15:54 30.12
16:54 30.12
17:54 30.12
18:54 30.12
19:54 30.12
20:54 30.12
21:54 30.12
22:54 30.12
23:54 30.12
00:54 30.12
01:54 30.12
02:54 30.12
03:54 30.12
04:54 31.12
05:54 31.12
06:54 31.12
07:54 31.12
08:54 31.12
09:54 31.12
10:54 31.12
11:54 31.12
12:54 31.12
13:54 31.12
14:54 31.12
15:54 31.12
16:54 31.12
17:54 31.12
18:54 31.12
19:54 31.12
20:54 31.12
21:54 31.12
Ветер
(напр.,м/с)
Видим. Явления Облачность Т
(С)
Тd
(С)
f
(%)
Тe
(С)
Тes
(С)
Комфортность P
(гПа)
Po
(гПа)
Тmin
(С)
Tmax
(С)
R
(мм)
R24
(мм)
S
(см)
0 800 м туман ?/? +15.0 +13.9 93 +15 +15 1003.8 969.2
0 800 м слабый дождь, туман ?/? +15.0 +14.4 96 +15 +15 1002.7 967.9
0 800 м слабый дождь, туман ?/? +14.4 +13.9 97 +14 +14 1000.8 966.2
800 м туман ?/? +14.4 +13.3 93 +14 +14 1000.4 965.9 +13.9 +16.1
0 800 м туман 10/10 0 м +13.9 +13.3 96 +13 +13 964.9
0 800 м туман 2/2 0 м +13.3 +12.8 97 +13 +13 964.6
0 6 км дымка 2/2 0 м +13.9 +12.8 93 +13 +13 998.7 964.3
Ю 4 6 км дымка 8/5 30 м
[средняя]
+14.4 +13.3 93 +13 +13 963.0
Ю 5
{9}
6 км слабый дождь 8/2 30 м
[средняя]
+18.3 +13.3 73 +18 +18 997.5 963.0
З 4 10 км дождь 10/8 1050 м
[средняя]
+16.7 +13.9 84 +16 +16 998.8 964.3
ЮЗ 6
{11}
11 км 10/0 2100 м
[средняя]
+15.6 +11.1 75 +14 +14 1000.7 966.2
ЮЗ 6
{11}
16 км слабый дождь 10/2 900 м
[средняя]
+15.0 +10.6 75 +13 +13 1001.6 966.9
ЮЗ 11
{14}
16 км 10/0 2400 м
[средняя]
+14.4 +3.9 49 +12 +12 1003.3 968.5 +13.3 +18.3 4.8
З 6
{10}
16 км 2/0 3300 м
[средняя]
+12.2 +3.3 54 +10 +10 1004.6 969.8
ЮЗ 3 16 км 5/5 1050 м
[средняя]
+12.2 +3.9 57 +11 +11 1005.4 970.5
ЮЗ 6
{10}
16 км 5/5 900 м
[средняя]
+12.2 +3.9 57 +9 +10 1005.7 970.8
З 6
{11}
16 км 8/8 1260 м +13.3 +3.3 51 +11 +11 1005.7 970.8
ЮЗ 10
{14}
16 км 5/5 1320 м +13.3 +2.2 47 +10 +10 1005.2 970.2
ЮЗ 9
{13}
16 км 5/5 1440 м +13.3 +1.7 45 +10 +11 1004.6 969.8 +12.2 +14.4
З 8
{13}
16 км 5/5 1500 м +13.3 +1.7 45 +11 +11 1004.4 969.5
З 4 16 км 5/5 1500 м +13.9 +1.1 42 +12 +13 1004.2 969.5
З 6 16 км 5/5 1650 м +13.9 +1.1 42 +12 +12 1004.8 970.2
З 4 16 км 2/2 1650 м +12.8 +0.6 43 +11 +12 1005.1 970.2
нст 3 16 км 2/2 1650 м +10.6 +1.1 52 +9 +9 1005.7 970.8
СЗ 2 16 км 2/2 1800 м +8.3 +0.6 58 +6 +6 1007.2 972.1 +8.3 +13.9
нст 3 16 км ясно +6.7 0.0 62 +4 +4 1008.5 973.1
нст 3 16 км 5/2 930 м
[средняя]
+5.6 -0.6 64 +3 +3 1009.3 973.7
ЮЗ 3 16 км 8/8 1470 м +5.6 -1.1 62 +3 +3 1009.5 974.1
Ю 4 16 км 10/10 1650 м +5.6 -0.6 64 +2 +2 1009.1 973.7
Ю 4 16 км 10/10 1260 м +5.6 -1.1 62 +2 +2 1008.8 973.4
ЮЗ 4 16 км 10/10 1350 м +6.1 -0.6 62 +2 +2 1008.1 972.8 +5.6 +8.3
ЮЗ 6
{8}
16 км 10/10 870 м +6.1 -0.6 62 +2 +2 1007.9 972.8
З 6
{8}
16 км 10/10 1200 м +5.6 -0.6 64 +1 +1 1008.3 973.1
ЮЗ 4 16 км 10/10 1500 м +5.6 -1.1 62 +1 +1 1008.3 973.1
З 6
{10}
16 км 10/10 1410 м +5.6 -2.2 57 +1 +1 1007.9 972.8
ЮЗ 4 16 км 10/10 1500 м +5.6 -1.7 59 +2 +2 1007.8 972.4
З 4
{8}
16 км 10/10 1500 м +5.6 -1.7 59 +2 +2 1008.4 972.8 +5.6 +6.1
нст 3 16 км 10/10 1350 м +4.4 -1.1 67 +1 +1 1008.9 973.4
нст 3 16 км 10/10 930 м +4.4 -1.7 65 +1 +1 1009.5 973.7
З 5
{9}
16 км 10/10 1020 м +5.0 -2.2 60 0 0 1009.8 974.1
З 8
{10}
16 км 10/10 1050 м +5.0 -2.8 57 -1 -1 1010.1 974.4
ЮЗ 8
{12}
16 км 8/8 1200 м +5.6 -3.3 53 0 0 1009.3 973.7
ЮЗ 10
{16}
16 км 10/10 1230 м +5.6 -3.9 50 -0 -0 1008.8 973.1 +4.4 +6.1
ЮЗ 6
{11}
16 км 10/10 1200 м +5.0 -3.9 53 0 0 1009.2 973.4
З 8
{14}
16 км 10/10 1260 м +5.0 -4.4 51 -1 -1 1009.6 974.1
З 7
{12}
16 км 10/10 1230 м +5.0 -3.9 53 -0 -0 1010.0 974.4
З 6
{9}
16 км 10/10 1230 м +5.0 -3.9 53 0 0 1009.9 974.4
З 5
{9}
16 км 10/10 1320 м +4.4 -3.9 55 -0 -0 1010.7 975.1
Местоположение метеостанции Charleston Yeager Airport: широта 38.3794 долгота -81.5914 высота над уровнем моря 299 м.
В архиве по умолчанию представлена погода в Чарльстоне за последние 1-2 суток. Обновление информации о фактической погоде в базе происходит ежечасно! Архивные данные за месяц целиком и за предыдущие месяцы Вы можете получить, выбрав интересующий диапазон дат из раскрывающегося списка и нажав кнопку "Ввод!".
Внимание! Архив погоды МЕТАР в базе сайта по станциям, не включенным в климатический монитор, хранится не более 60 дней. Нет смысла пытаться выбрать более раннюю дату.
*Определитесь, кто Вы:
Внимание! Время в таблицах - всемирное. Для получения местного времени необходимо прибавить поправку, которая равна ч.
Смотрите также архив погоды в соседних городах и на ближайших метеорологических станциях:
Партнеры нашего сайта:      
Пояснения к столбцам:
  • Ветер - указаны скорость ветра в м/с - средняя за 10 мин, порывы в срок и между сроками (в фигурных скобках) и направление, откуда дует ветер: С - северный,
  • СВ - северо-восточный, В - восточный, ЮВ - юго-восточный, Ю - южный, ЮЗ - юго-западный, З - западный, СЗ - северо-западный.
  • Видимость - горизонтальная дальность видимости в метрах или километрах. При видимости от 1 до 10 км при отсутствии осадков обычно наблюдается дымка, при ухудшении видимости до 1 км и менее - туман. В сухую погоду видимость может ухудшаться дымом, пылью или мглою.
  • Явления - указаны атмосферные явления, наблюдавшиеся в срок или в последний час перед сроком; фигурными скобками обозначены явления, наблюдавшиеся между сроками (за 1-3 часа до срока); квадратными скобками обозначены град или гололедные отложения с указанием их диаметра в мм.
  • Облачность - указаны через наклонную черту общая и нижняя облачность в баллах и высота нижней границы облаков в метрах; квадратными скобками обозначены формы облаков: Ci - перистые, Cs - перисто-слоистые, Cc - перисто-кучевые, Ac - высококучевые, As - высокослоистые, Sc - слоисто-кучевые, Ns - слоисто-дождевые, Cu - кучевые, Cb - кучево-дождевые. Подробнее классификацию облаков см. в Атласе облаков (PDF).
  • T - Температура воздуха - температура, измеренная на высоте 2 м над землей.
  • Td - Температура точки росы - температура, при понижении до которой содержащийся в воздухе водяной пар достигнет насыщения.
  • f - Относительная влажность воздуха - влажноcть воздуха, измеренная на высоте 2 м над землей.
  • Te - Эффективная температура - температура, которую ощущает одетый по сезону человек в тени. Характеристика душности погоды. При расчете учитывается влияние влажности воздуха и скорости ветра на теплоощущения человека.
  • Tes - Эффективная температура на солнце - температура, которую ощущает человек, с поправкой на солнечный нагрев. Характеристика знойности погоды. Зависит от высоты солнца над горизонтом, облачности и скорости ветра. Ночью, в пасмурную погоду, а также при ветре 12 м/с и более поправка равна нулю.
  • P - Атмосферное давление - приведенное к уровню моря атмосферное давление.
  • Po - Атмосферное давление - измеренное на уровне метеостанции атмосферное давление.
  • Tmin - Минимальная температура - минимум температуры воздуха на высоте 2 м над землей.
  • Tmax - Максимальная температура - максимум температуры воздуха на высоте 2 м над землей.
  • R - Количество осадков - Количество выпавших осадков за период времени, мм. При наведении курсора мыши на число - период времени, за который выпало указанное количество осадков.
  • R24 - Количество осадков - Количество выпавших осадков за 24 часа, мм.
  • S - Снежный покров - Высота снежного покрова, см. При наведении курсора мыши на число - состояние снежного покрова и степень покрытия местности в баллах.